Regional Weather Roundup
Issued by NWS

Home | Current Version | Previous Version | Graphics & Text | Print | Product List | Glossary On
Versions: 1 2 3 4 5 6 7 8 9 10 11 12 13 14 15 16 17 18 19 20 21 22 23 24 25 26 27 28 29 30 31 32 33 34 35 36 37 38 39 40 41 42 43 44 45 46 47 48 49 50
000
ASUS43 KDTX 261510
RWRMI
MICHIGAN HOURLY REGIONAL WEATHER ROUNDUP
NATIONAL WEATHER SERVICE DETROIT/PONTIAC MI
1000 AM EST WED NOV 26 2014

NOTE: "FAIR" INDICATES FEW OR NO CLOUDS BELOW 12,000 FEET WITH NO
SIGNIFICANT WEATHER AND/OR OBSTRUCTION TO VISIBILITY.

MIZ047>049-052>055-059>063-066>070-074>076-081>083-261600-
SOUTHEAST LOWER MICHIGAN

CITY           SKY/WX    TMP DP  RH WIND       PRES   REMARKS
ADRIAN         CLOUDY    28  23  81 CALM      30.18S
ALMA           CLOUDY    29  22  76 E3        30.18S
ANN ARBOR      CLOUDY    30  21  69 E3        30.16F
BAD AXE        CLOUDY    30  23  73 CALM      30.18F
DETROIT CITY   CLOUDY    33  23  66 CALM      30.17F
DETROIT        LGT SNOW  30  25  81 CALM      30.17F FOG
FLINT          CLOUDY    31  22  69 E8        30.18S
GROSSE ILE     CLOUDY    32  23  69 N3        30.15F
HILLSDALE      CLOUDY    27  21  78 E5        30.14F
HOWELL         CLOUDY    29  21  73 NE5       30.16S

CITY           SKY/WX    TMP DP  RH WIND       PRES   REMARKS
JACKSON        CLOUDY    28  20  71 E5        30.15S
LAMBERTVILLE   CLOUDY    32  23  69 CALM      30.17F
LANSING        CLOUDY    29  20  69 E7        30.17S
LAPEER         NOT AVBL
MASON          CLOUDY    29  23  76 E5        30.16S
MONROE         CLOUDY    30  25  80 NW3       30.15F
MT. CLEMENS    CLOUDY    31  23  72 N8        30.14F
PONTIAC        CLOUDY    29  19  66 NE8       30.14F
PORT HOPE        N/A     31  22  69 W5        30.17F
PORT HURON     CLOUDY    30  23  74 NW3       30.18F
TRI CITIES     CLOUDY    31  22  69 E9        30.19F
YPSILANTI      CLOUDY    34  23  64 S7        30.17F
$$
MIZ043>046-050>051-056>058-064>065-071>073-077>080-261600-
SOUTHWEST LOWER MICHIGAN

CITY           SKY/WX    TMP DP  RH WIND       PRES   REMARKS
BATTLE CREEK   CLOUDY    29  18  63 SE9       30.16S
BENTON HARBOR  CLOUDY    26  20  77 SE8       30.17S
BIG RAPIDS     LGT SNOW  28  27  95 CALM      30.15S
COLDWATER      CLOUDY    28  22  75 E7        30.16S
HOLLAND        CLOUDY    29  22  75 SE6       30.17S
GRAND RAPIDS   CLOUDY    29  21  72 E8        30.17R
KALAMAZOO      CLOUDY    28  20  71 E3        30.16S
MARSHALL       CLOUDY    27  20  76 E5        30.16S
MUSKEGON       CLOUDY    29  22  75 SE7       30.16S
$$
MIZ016>042-261600-
NORTHERN LOWER MICHIGAN

CITY           SKY/WX    TMP DP  RH WIND       PRES   REMARKS
ALPENA         CLOUDY    27  21  78 SW3       30.19F
BEAVER ISLAND  LGT SNOW  30  25  83 S6        30.15S
BELLAIRE       CLOUDY    27  20  76 CALM      30.19F
CADILLAC       FLURRIES  24  22  89 E5        30.12F
CHARLEVOIX     CLOUDY    26  20  79 S6        30.20S
FRANKFORT      CLOUDY    27  24  87 SE3       30.16S
GAYLORD        CLOUDY    22  18  85 S3        30.15R
GRAYLING       CLOUDY    25  21  85 E3        30.16S
HARBOR SPRINGS CLOUDY    26  19  76 CALM      30.18S
HOUGHTON LAKE  CLOUDY    24  20  84 E8        30.16R
MANISTEE       CLOUDY    27  21  80 E3        30.17S
OSCODA         CLOUDY    28  23  79 CALM      30.19S
PELLSTON       CLOUDY    26  20  77 S7        30.19R
TRAVERSE CITY  CLOUDY    28  22  78 CALM      30.17S
$$
MIZ007>008-015-261600-
EASTERN UPPER MICHIGAN

CITY           SKY/WX    TMP DP  RH WIND       PRES   REMARKS
KINROSS        CLOUDY    23  21  93 E5        30.17F
MACKINAC ISLAN CLOUDY    28  21  75 S5        30.17S
NEWBERRY       CLOUDY    15  14  95 CALM      30.16S
S. S. MARIE    CLOUDY    24  20  84 VRB3      30.18F
$$
MIZ004>006-011>014-085-261600-
CENTRAL UPPER MICHIGAN

CITY           SKY/WX    TMP DP  RH WIND       PRES   REMARKS
MANISTIQUE     CLOUDY    19  16  89 N5        30.17R
ESCANABA       CLOUDY    12  10  92 NW3       30.17S
MENOMINEE      MOSUNNY   14  10  85 NW3       30.17S
SAWYER-GWINN   CLOUDY     3   0  85 CALM      30.12R
$$
MIZ001>003-009>011-084-261600-
WESTERN UPPER MICHIGAN

CITY           SKY/WX    TMP DP  RH WIND       PRES   REMARKS
IRON MOUNTAIN  CLOUDY     7   3  84 CALM      30.13R
HOUGHTON       FLURRIES  18  10  71 SW5       30.09R
COPPER HARBOR    N/A     23  17  78 W8        30.11S
IRONWOOD       CLOUDY    16  16 100 CALM      30.10R
$$

ABBREVIATIONS USED IN REMARKS
   TC - TEMPERATURE IN CELSIUS
  WCI - WIND CHILL INDEX
   HX - HEAT INDEX
  VSB - VISIBILITY




USA.gov is the U.S. government's official web portal to all federal, state and local government web resources and services.